Time,TemperatureF,DewpointF,PressureIn,WindDirection,WindDirectionDegrees,WindSpeedMPH,WindSpeedGustMPH,Humidity,HourlyPrecipIn,Conditions,Clouds,dailyrainin,SoftwareType,DateUTC
2013-04-05 00:02:00,43.0,41.7,30.19,West,268,1.0,3.0,95,0.00,,,0.00,meteohub,2013-04-05 05:02:00,
2013-04-05 00:07:00,43.0,41.7,30.19,West,268,1.0,3.0,95,0.00,,,0.00,meteohub,2013-04-05 05:07:00,
2013-04-05 00:12:00,43.0,41.7,30.19,West,268,1.0,3.0,95,0.00,,,0.00,meteohub,2013-04-05 05:12:00,
2013-04-05 00:22:00,43.0,41.7,30.19,West,273,1.0,4.0,95,0.00,,,0.00,meteohub,2013-04-05 05:22:00,
2013-04-05 00:27:00,43.0,41.7,30.19,West,273,1.0,4.0,95,0.00,,,0.00,meteohub,2013-04-05 05:27:00,
2013-04-05 00:32:00,43.0,41.4,30.19,West,273,0.0,4.0,94,0.00,,,0.00,meteohub,2013-04-05 05:32:00,
2013-04-05 00:37:00,42.8,41.2,30.19,West,271,2.0,2.0,94,0.00,,,0.00,meteohub,2013-04-05 05:37:00,
2013-04-05 00:42:00,42.8,41.5,30.18,West,271,0.0,3.0,95,0.00,,,0.00,meteohub,2013-04-05 05:42:00,
2013-04-05 00:47:00,42.8,41.5,30.18,West,266,0.0,4.0,95,0.00,,,0.00,meteohub,2013-04-05 05:47:00,
2013-04-05 00:52:00,42.8,41.5,30.18,West,266,1.0,4.0,95,0.00,,,0.00,meteohub,2013-04-05 05:52:00,
2013-04-05 00:57:00,42.6,41.4,30.18,West,279,2.0,4.0,95,0.00,,,0.00,meteohub,2013-04-05 05:57:00,
2013-04-05 01:02:00,42.8,41.5,30.18,WNW,284,1.0,3.0,95,0.00,,,0.00,meteohub,2013-04-05 06:02:00,
2013-04-05 01:07:00,42.8,41.5,30.18,West,273,2.0,3.0,95,0.00,,,0.00,meteohub,2013-04-05 06:07:00,
2013-04-05 01:17:00,42.6,41.4,30.18,West,273,1.0,3.0,95,0.00,,,0.00,meteohub,2013-04-05 06:17:00,
2013-04-05 01:22:00,42.6,41.4,30.18,West,273,1.0,3.0,95,0.00,,,0.00,meteohub,2013-04-05 06:22:00,
2013-04-05 01:27:00,42.6,41.4,30.18,West,273,1.0,2.0,95,0.00,,,0.00,meteohub,2013-04-05 06:27:00,
2013-04-05 01:32:00,42.6,41.4,30.18,West,273,1.0,2.0,95,0.00,,,0.00,meteohub,2013-04-05 06:32:00,
2013-04-05 01:37:00,42.4,41.2,30.18,West,273,1.0,2.0,95,0.00,,,0.00,meteohub,2013-04-05 06:37:00,
2013-04-05 01:42:00,42.4,41.2,30.18,West,273,1.0,3.0,95,0.00,,,0.00,meteohub,2013-04-05 06:42:00,
2013-04-05 01:47:00,42.4,41.2,30.17,WNW,284,2.0,3.0,95,0.00,,,0.00,meteohub,2013-04-05 06:47:00,
2013-04-05 01:52:00,42.4,41.2,30.18,WNW,284,2.0,4.0,95,0.00,,,0.00,meteohub,2013-04-05 06:52:00,
2013-04-05 02:02:00,42.6,41.5,30.18,West,261,1.0,4.0,96,0.00,,,0.00,meteohub,2013-04-05 07:02:00,
2013-04-05 02:07:00,43.0,41.9,30.17,WNW,282,2.0,5.0,96,0.00,,,0.00,meteohub,2013-04-05 07:07:00,
2013-04-05 02:12:00,43.2,42.1,30.17,WSW,254,1.0,5.0,96,0.00,,,0.00,meteohub,2013-04-05 07:12:00,
2013-04-05 02:17:00,43.3,42.3,30.17,WNW,290,1.0,5.0,96,0.00,,,0.00,meteohub,2013-04-05 07:17:00,
2013-04-05 02:27:00,43.3,42.1,30.17,WSW,253,2.0,6.0,95,0.00,,,0.00,meteohub,2013-04-05 07:27:00,
2013-04-05 02:32:00,43.3,42.1,30.17,West,271,3.0,6.0,95,0.00,,,0.00,meteohub,2013-04-05 07:32:00,
2013-04-05 02:37:00,43.3,42.1,30.17,WSW,240,1.0,7.0,95,0.00,,,0.00,meteohub,2013-04-05 07:37:00,
2013-04-05 02:42:00,43.3,42.1,30.17,West,275,3.0,7.0,95,0.00,,,0.00,meteohub,2013-04-05 07:42:00,
2013-04-05 02:47:00,43.3,42.1,30.17,WNW,288,1.0,7.0,95,0.00,,,0.00,meteohub,2013-04-05 07:47:00,
2013-04-05 02:52:00,43.3,42.1,30.17,West,272,2.0,4.0,95,0.00,,,0.00,meteohub,2013-04-05 07:52:00,
2013-04-05 02:57:00,43.3,41.7,30.17,West,271,1.0,4.0,94,0.00,,,0.00,meteohub,2013-04-05 07:57:00,
2013-04-05 03:02:00,43.3,41.7,30.17,West,278,2.0,4.0,94,0.00,,,0.00,meteohub,2013-04-05 08:02:00,
2013-04-05 03:07:00,43.3,41.7,30.17,WNW,291,2.0,4.0,94,0.00,,,0.00,meteohub,2013-04-05 08:07:00,
2013-04-05 03:12:00,43.2,41.5,30.17,West,273,2.0,4.0,94,0.00,,,0.00,meteohub,2013-04-05 08:12:00,
2013-04-05 03:17:00,43.2,41.5,30.17,West,279,1.0,4.0,94,0.00,,,0.00,meteohub,2013-04-05 08:17:00,
2013-04-05 03:22:00,43.2,41.5,30.17,West,269,1.0,4.0,94,0.00,,,0.00,meteohub,2013-04-05 08:22:00,
2013-04-05 03:27:00,43.0,41.4,30.17,West,271,2.0,4.0,94,0.00,,,0.00,meteohub,2013-04-05 08:27:00,
2013-04-05 03:32:00,43.0,41.4,30.17,West,271,3.0,5.0,94,0.01,,,0.01,meteohub,2013-04-05 08:32:00,
2013-04-05 03:42:00,43.0,41.4,30.17,NW,312,1.0,5.0,94,0.01,,,0.01,meteohub,2013-04-05 08:42:00,
2013-04-05 03:52:00,42.8,41.2,30.17,West,271,4.0,6.0,94,0.01,,,0.01,meteohub,2013-04-05 08:52:00,
2013-04-05 03:57:00,42.6,41.0,30.18,WNW,298,4.0,5.0,94,0.01,,,0.01,meteohub,2013-04-05 08:57:00,
2013-04-05 04:07:00,42.8,41.2,30.18,NW,304,4.0,6.0,94,0.01,,,0.01,meteohub,2013-04-05 09:07:00,
2013-04-05 04:12:00,42.8,41.2,30.18,WNW,286,2.0,6.0,94,0.01,,,0.01,meteohub,2013-04-05 09:12:00,
2013-04-05 04:17:00,42.8,41.2,30.18,WNW,284,2.0,6.0,94,0.01,,,0.01,meteohub,2013-04-05 09:17:00,
2013-04-05 04:22:00,42.8,41.2,30.17,West,263,2.0,6.0,94,0.01,,,0.01,meteohub,2013-04-05 09:22:00,
2013-04-05 04:27:00,42.6,41.0,30.18,WNW,302,2.0,8.0,94,0.00,,,0.01,meteohub,2013-04-05 09:27:00,
2013-04-05 04:37:00,42.6,41.0,30.18,WNW,283,1.0,7.0,94,0.00,,,0.01,meteohub,2013-04-05 09:37:00,
2013-04-05 04:42:00,42.6,41.0,30.18,West,263,4.0,6.0,94,0.00,,,0.01,meteohub,2013-04-05 09:42:00,
2013-04-05 04:47:00,42.4,40.8,30.18,West,274,1.0,7.0,94,0.00,,,0.01,meteohub,2013-04-05 09:47:00,
2013-04-05 04:57:00,42.4,41.2,30.19,WNW,300,3.0,7.0,95,0.00,,,0.01,meteohub,2013-04-05 09:57:00,
2013-04-05 05:02:00,42.4,41.2,30.19,WSW,257,2.0,7.0,95,0.00,,,0.01,meteohub,2013-04-05 10:02:00,
2013-04-05 05:07:00,42.4,40.8,30.19,WNW,284,2.0,7.0,94,0.00,,,0.01,meteohub,2013-04-05 10:07:00,
2013-04-05 05:12:00,42.3,40.6,30.18,WNW,288,1.0,7.0,94,0.00,,,0.01,meteohub,2013-04-05 10:12:00,
2013-04-05 05:17:00,42.3,40.6,30.18,West,280,2.0,7.0,94,0.00,,,0.01,meteohub,2013-04-05 10:17:00,
2013-04-05 05:22:00,42.3,40.6,30.18,WNW,284,2.0,5.0,94,0.00,,,0.01,meteohub,2013-04-05 10:22:00,
2013-04-05 05:32:00,42.3,41.0,30.19,West,277,5.0,8.0,95,0.00,,,0.01,meteohub,2013-04-05 10:32:00,
2013-04-05 05:37:00,42.3,41.0,30.19,WNW,289,2.0,8.0,95,0.00,,,0.01,meteohub,2013-04-05 10:37:00,
2013-04-05 05:47:00,42.3,41.0,30.20,West,259,4.0,8.0,95,0.00,,,0.01,meteohub,2013-04-05 10:47:00,
2013-04-05 05:52:00,42.3,41.0,30.20,WSW,240,3.0,8.0,95,0.00,,,0.01,meteohub,2013-04-05 10:52:00,
2013-04-05 06:02:00,42.3,41.0,30.20,WNW,285,6.0,7.0,95,0.00,,,0.01,meteohub,2013-04-05 11:02:00,
2013-04-05 06:07:00,42.3,41.0,30.20,WSW,252,3.0,9.0,95,0.00,,,0.01,meteohub,2013-04-05 11:07:00,
2013-04-05 06:12:00,42.3,41.0,30.20,West,265,4.0,9.0,95,0.00,,,0.01,meteohub,2013-04-05 11:12:00,
2013-04-05 06:17:00,42.3,41.0,30.20,West,264,4.0,9.0,95,0.00,,,0.01,meteohub,2013-04-05 11:17:00,
2013-04-05 06:22:00,42.3,41.0,30.20,West,266,2.0,7.0,95,0.00,,,0.01,meteohub,2013-04-05 11:22:00,
2013-04-05 06:32:00,42.3,41.0,30.20,WNW,296,2.0,7.0,95,0.00,,,0.01,meteohub,2013-04-05 11:32:00,
2013-04-05 06:37:00,42.3,41.0,30.20,WNW,303,2.0,7.0,95,0.00,,,0.01,meteohub,2013-04-05 11:37:00,
2013-04-05 06:47:00,42.1,40.8,30.20,SW,230,2.0,5.0,95,0.00,,,0.01,meteohub,2013-04-05 11:47:00,
2013-04-05 06:52:00,42.1,40.8,30.20,West,275,1.0,7.0,95,0.00,,,0.01,meteohub,2013-04-05 11:52:00,
2013-04-05 06:57:00,42.1,40.8,30.20,NW,313,2.0,7.0,95,0.00,,,0.01,meteohub,2013-04-05 11:57:00,
2013-04-05 07:02:00,41.9,40.6,30.20,NW,312,1.0,7.0,95,0.00,,,0.01,meteohub,2013-04-05 12:02:00,
2013-04-05 07:07:00,41.9,40.6,30.20,NW,312,1.0,3.0,95,0.00,,,0.01,meteohub,2013-04-05 12:07:00,
2013-04-05 07:17:00,41.7,40.5,30.20,NW,312,0.0,2.0,95,0.00,,,0.01,meteohub,2013-04-05 12:17:00,
2013-04-05 07:22:00,41.7,40.5,30.20,NW,312,0.0,2.0,95,0.00,,,0.01,meteohub,2013-04-05 12:22:00,
2013-04-05 07:32:00,41.7,40.5,30.19,NW,312,0.0,0.0,95,0.00,,,0.01,meteohub,2013-04-05 12:32:00,
2013-04-05 07:37:00,41.5,40.3,30.19,NW,312,0.0,0.0,95,0.00,,,0.01,meteohub,2013-04-05 12:37:00,
2013-04-05 07:42:00,41.5,40.3,30.20,NW,312,2.0,0.0,95,0.00,,,0.01,meteohub,2013-04-05 12:42:00,
2013-04-05 07:47:00,41.7,40.5,30.21,West,267,1.0,2.0,95,0.00,,,0.01,meteohub,2013-04-05 12:47:00,
2013-04-05 07:57:00,42.3,41.2,30.22,WNW,297,1.0,5.0,96,0.00,,,0.01,meteohub,2013-04-05 12:57:00,
2013-04-05 08:07:00,42.6,41.5,30.22,West,276,4.0,6.0,96,0.00,,,0.01,meteohub,2013-04-05 13:07:00,
2013-04-05 08:17:00,43.3,42.3,30.22,NW,306,2.0,5.0,96,0.00,,,0.01,meteohub,2013-04-05 13:17:00,
2013-04-05 08:27:00,44.6,43.3,30.22,WNW,301,2.0,7.0,95,0.00,,,0.01,meteohub,2013-04-05 13:27:00,
2013-04-05 08:37:00,46.4,44.4,30.23,WNW,292,2.0,7.0,93,0.00,,,0.01,meteohub,2013-04-05 13:37:00,
2013-04-05 08:42:00,47.3,45.1,30.23,NW,304,0.0,5.0,92,0.00,,,0.01,meteohub,2013-04-05 13:42:00,
2013-04-05 08:52:00,49.1,46.0,30.23,WNW,300,2.0,4.0,89,0.00,,,0.01,meteohub,2013-04-05 13:52:00,
2013-04-05 08:57:00,49.8,46.4,30.23,NW,311,2.0,5.0,88,0.00,,,0.01,meteohub,2013-04-05 13:57:00,
2013-04-05 09:02:00,50.7,46.8,30.23,WNW,282,1.0,5.0,86,0.00,,,0.01,meteohub,2013-04-05 14:02:00,
2013-04-05 09:07:00,51.6,47.3,30.24,NW,321,1.0,4.0,85,0.00,,,0.01,meteohub,2013-04-05 14:07:00,
2013-04-05 09:12:00,52.3,46.0,30.24,North,355,1.0,3.0,79,0.00,,,0.01,meteohub,2013-04-05 14:12:00,
2013-04-05 09:17:00,52.9,47.3,30.24,NW,322,1.0,3.0,81,0.00,,,0.01,meteohub,2013-04-05 14:17:00,
2013-04-05 09:22:00,53.6,47.8,30.25,WNW,293,2.0,3.0,81,0.00,,,0.01,meteohub,2013-04-05 14:22:00,
2013-04-05 09:32:00,55.6,48.6,30.25,West,267,2.0,3.0,77,0.00,,,0.01,meteohub,2013-04-05 14:32:00,
2013-04-05 09:37:00,56.3,48.2,30.25,WNW,296,2.0,5.0,74,0.00,,,0.01,meteohub,2013-04-05 14:37:00,
2013-04-05 09:47:00,57.6,50.0,30.25,WNW,287,3.0,5.0,76,0.00,,,0.01,meteohub,2013-04-05 14:47:00,
2013-04-05 09:52:00,57.9,48.2,30.25,West,261,0.0,4.0,70,0.00,,,0.01,meteohub,2013-04-05 14:52:00,
2013-04-05 10:02:00,58.6,48.9,30.25,WNW,299,2.0,4.0,70,0.00,,,0.01,meteohub,2013-04-05 15:02:00,
2013-04-05 10:07:00,59.4,49.1,30.25,WNW,284,2.0,4.0,69,0.00,,,0.01,meteohub,2013-04-05 15:07:00,
2013-04-05 10:17:00,60.4,49.8,30.24,WNW,287,2.0,6.0,68,0.00,,,0.01,meteohub,2013-04-05 15:17:00,
2013-04-05 10:22:00,61.2,49.3,30.25,West,260,3.0,6.0,65,0.00,,,0.01,meteohub,2013-04-05 15:22:00,
2013-04-05 10:32:00,61.9,48.2,30.25,NW,307,2.0,5.0,61,0.00,,,0.01,meteohub,2013-04-05 15:32:00,
2013-04-05 10:42:00,62.1,47.1,30.25,WNW,295,1.0,6.0,58,0.00,,,0.01,meteohub,2013-04-05 15:42:00,
2013-04-05 10:47:00,62.1,48.9,30.25,North,0,1.0,6.0,62,0.00,,,0.01,meteohub,2013-04-05 15:47:00,
2013-04-05 10:52:00,61.9,48.7,30.24,NW,306,2.0,6.0,62,0.00,,,0.01,meteohub,2013-04-05 15:52:00,
2013-04-05 11:02:00,63.0,48.9,30.24,North,355,1.0,4.0,60,0.00,,,0.01,meteohub,2013-04-05 16:02:00,
2013-04-05 11:07:00,62.8,46.9,30.24,NNE,23,1.0,4.0,56,0.00,,,0.01,meteohub,2013-04-05 16:07:00,
2013-04-05 11:12:00,62.8,49.1,30.24,WNW,296,1.0,4.0,61,0.00,,,0.01,meteohub,2013-04-05 16:12:00,
2013-04-05 11:17:00,63.0,45.1,30.24,East,86,2.0,4.0,52,0.00,,,0.01,meteohub,2013-04-05 16:17:00,
2013-04-05 11:22:00,62.8,47.3,30.24,ENE,74,3.0,5.0,57,0.00,,,0.01,meteohub,2013-04-05 16:22:00,
2013-04-05 11:27:00,62.8,45.9,30.24,ENE,73,2.0,5.0,54,0.00,,,0.01,meteohub,2013-04-05 16:27:00,
2013-04-05 11:37:00,63.0,48.4,30.24,NW,319,1.0,4.0,59,0.00,,,0.01,meteohub,2013-04-05 16:37:00,
2013-04-05 11:42:00,63.9,46.4,30.24,WSW,238,0.0,4.0,53,0.00,,,0.01,meteohub,2013-04-05 16:42:00,
2013-04-05 11:47:00,64.8,48.7,30.23,WSW,238,0.0,4.0,56,0.00,,,0.01,meteohub,2013-04-05 16:47:00,
2013-04-05 11:57:00,64.9,44.2,30.23,ENE,78,0.0,3.0,47,0.00,,,0.01,meteohub,2013-04-05 16:57:00,
2013-04-05 12:02:00,64.8,47.7,30.23,East,91,0.0,5.0,54,0.00,,,0.01,meteohub,2013-04-05 17:02:00,
2013-04-05 12:07:00,65.1,45.5,30.23,NNE,26,1.0,5.0,49,0.00,,,0.01,meteohub,2013-04-05 17:07:00,
2013-04-05 12:17:00,64.6,46.0,30.22,ENE,62,2.0,5.0,51,0.00,,,0.01,meteohub,2013-04-05 17:17:00,
2013-04-05 12:22:00,64.4,43.7,30.22,NNE,27,3.0,5.0,47,0.00,,,0.01,meteohub,2013-04-05 17:22:00,
2013-04-05 12:27:00,64.8,46.2,30.22,NW,306,1.0,5.0,51,0.00,,,0.01,meteohub,2013-04-05 17:27:00,
2013-04-05 12:32:00,65.3,47.3,30.22,South,184,2.0,4.0,52,0.00,,,0.01,meteohub,2013-04-05 17:32:00,
2013-04-05 12:37:00,65.8,47.7,30.21,South,183,3.0,5.0,52,0.00,,,0.01,meteohub,2013-04-05 17:37:00,
2013-04-05 12:47:00,67.1,46.8,30.21,SSW,207,0.0,6.0,48,0.00,,,0.01,meteohub,2013-04-05 17:47:00,
2013-04-05 12:57:00,68.0,47.7,30.20,SW,224,2.0,6.0,48,0.00,,,0.01,meteohub,2013-04-05 17:57:00,
2013-04-05 13:02:00,68.4,47.3,30.20,SSE,160,2.0,5.0,47,0.00,,,0.01,meteohub,2013-04-05 18:02:00,
2013-04-05 13:07:00,68.4,46.2,30.20,NE,43,3.0,5.0,45,0.00,,,0.01,meteohub,2013-04-05 18:07:00,
2013-04-05 13:12:00,67.5,46.0,30.19,NNE,16,3.0,5.0,46,0.00,,,0.01,meteohub,2013-04-05 18:12:00,
2013-04-05 13:17:00,67.3,49.6,30.19,NE,54,4.0,4.0,53,0.00,,,0.01,meteohub,2013-04-05 18:17:00,
2013-04-05 13:22:00,67.3,46.9,30.19,ESE,119,3.0,5.0,48,0.00,,,0.01,meteohub,2013-04-05 18:22:00,
2013-04-05 13:32:00,67.6,47.8,30.18,NE,42,3.0,5.0,49,0.00,,,0.01,meteohub,2013-04-05 18:32:00,
2013-04-05 13:37:00,67.5,47.7,30.18,NE,55,2.0,4.0,49,0.00,,,0.01,meteohub,2013-04-05 18:37:00,
2013-04-05 13:47:00,68.5,46.9,30.17,South,187,3.0,5.0,46,0.00,,,0.01,meteohub,2013-04-05 18:47:00,
2013-04-05 13:57:00,68.5,46.4,30.17,NE,54,2.0,6.0,45,0.00,,,0.01,meteohub,2013-04-05 18:57:00,
2013-04-05 14:02:00,68.2,48.9,30.17,WNW,294,3.0,6.0,50,0.00,,,0.01,meteohub,2013-04-05 19:02:00,
2013-04-05 14:07:00,68.7,46.6,30.16,SSE,151,1.0,6.0,45,0.00,,,0.01,meteohub,2013-04-05 19:07:00,
2013-04-05 14:17:00,70.2,48.9,30.16,SE,138,1.0,4.0,47,0.00,,,0.01,meteohub,2013-04-05 19:17:00,
2013-04-05 14:22:00,70.5,50.9,30.16,SE,126,3.0,7.0,50,0.00,,,0.01,meteohub,2013-04-05 19:22:00,
2013-04-05 14:32:00,71.8,49.3,30.15,SE,139,3.0,7.0,45,0.00,,,0.01,meteohub,2013-04-05 19:32:00,
2013-04-05 14:37:00,72.1,49.1,30.15,West,275,0.0,7.0,44,0.00,,,0.01,meteohub,2013-04-05 19:37:00,
2013-04-05 14:47:00,72.9,50.4,30.14,South,185,1.0,5.0,45,0.00,,,0.01,meteohub,2013-04-05 19:47:00,
2013-04-05 14:52:00,73.2,48.0,30.14,SW,220,4.0,5.0,41,0.00,,,0.01,meteohub,2013-04-05 19:52:00,
2013-04-05 14:57:00,73.6,50.4,30.14,SSW,209,3.0,6.0,44,0.00,,,0.01,meteohub,2013-04-05 19:57:00,
2013-04-05 15:02:00,73.9,50.7,30.14,South,175,3.0,6.0,44,0.00,,,0.01,meteohub,2013-04-05 20:02:00,
2013-04-05 15:07:00,74.1,48.9,30.13,West,265,3.0,4.0,41,0.00,,,0.01,meteohub,2013-04-05 20:07:00,
2013-04-05 15:17:00,74.5,49.3,30.13,West,275,0.0,5.0,41,0.00,,,0.01,meteohub,2013-04-05 20:17:00,
2013-04-05 15:22:00,73.8,48.6,30.12,East,79,1.0,5.0,41,0.00,,,0.01,meteohub,2013-04-05 20:22:00,
2013-04-05 15:27:00,72.5,46.8,30.12,NE,51,1.0,5.0,40,0.00,,,0.01,meteohub,2013-04-05 20:27:00,
2013-04-05 15:32:00,72.7,50.2,30.12,WNW,292,1.0,5.0,45,0.00,,,0.01,meteohub,2013-04-05 20:32:00,
2013-04-05 15:42:00,73.6,49.1,30.12,ESE,113,1.0,6.0,42,0.00,,,0.01,meteohub,2013-04-05 20:42:00,
2013-04-05 15:47:00,73.9,48.7,30.12,West,276,0.0,6.0,41,0.00,,,0.01,meteohub,2013-04-05 20:47:00,
2013-04-05 15:52:00,73.8,48.6,30.11,North,0,2.0,5.0,41,0.00,,,0.01,meteohub,2013-04-05 20:52:00,
2013-04-05 15:57:00,73.4,48.2,30.11,West,273,2.0,5.0,41,0.00,,,0.01,meteohub,2013-04-05 20:57:00,
2013-04-05 16:02:00,73.8,50.5,30.10,WSW,251,0.0,7.0,44,0.00,,,0.01,meteohub,2013-04-05 21:02:00,
2013-04-05 16:07:00,74.1,48.9,30.10,SSE,147,1.0,7.0,41,0.00,,,0.01,meteohub,2013-04-05 21:07:00,
2013-04-05 16:12:00,74.5,49.3,30.10,East,80,1.0,7.0,41,0.00,,,0.01,meteohub,2013-04-05 21:12:00,
2013-04-05 16:17:00,73.9,48.7,30.10,SSW,198,1.0,5.0,41,0.00,,,0.01,meteohub,2013-04-05 21:17:00,
2013-04-05 16:22:00,73.9,50.0,30.09,WSW,238,2.0,4.0,43,0.00,,,0.01,meteohub,2013-04-05 21:22:00,
2013-04-05 16:32:00,74.8,50.2,30.09,WSW,240,1.0,4.0,42,0.00,,,0.01,meteohub,2013-04-05 21:32:00,
2013-04-05 16:37:00,74.7,50.0,30.09,ESE,102,1.0,4.0,42,0.00,,,0.01,meteohub,2013-04-05 21:37:00,
2013-04-05 16:47:00,73.4,47.7,30.09,NE,55,0.0,4.0,40,0.00,,,0.01,meteohub,2013-04-05 21:47:00,
2013-04-05 16:52:00,73.0,48.6,30.09,SE,136,0.0,3.0,42,0.00,,,0.01,meteohub,2013-04-05 21:52:00,
2013-04-05 17:02:00,73.2,49.5,30.08,NE,54,2.0,3.0,43,0.00,,,0.01,meteohub,2013-04-05 22:02:00,
2013-04-05 17:07:00,73.0,48.0,30.08,SW,221,2.0,4.0,41,0.00,,,0.01,meteohub,2013-04-05 22:07:00,
2013-04-05 17:12:00,72.9,49.1,30.08,SSE,155,2.0,6.0,43,0.00,,,0.01,meteohub,2013-04-05 22:12:00,
2013-04-05 17:17:00,72.9,48.4,30.08,South,171,1.0,6.0,42,0.00,,,0.01,meteohub,2013-04-05 22:17:00,
2013-04-05 17:22:00,72.7,49.5,30.08,SSE,149,2.0,6.0,44,0.00,,,0.01,meteohub,2013-04-05 22:22:00,
2013-04-05 17:32:00,72.0,48.2,30.08,South,175,0.0,7.0,43,0.00,,,0.01,meteohub,2013-04-05 22:32:00,
2013-04-05 17:42:00,71.8,48.7,30.08,SE,129,0.0,3.0,44,0.00,,,0.01,meteohub,2013-04-05 22:42:00,
2013-04-05 17:47:00,71.4,48.4,30.08,ESE,111,0.0,3.0,44,0.00,,,0.01,meteohub,2013-04-05 22:47:00,
2013-04-05 17:52:00,71.2,48.7,30.08,SSE,167,0.0,6.0,45,0.00,,,0.01,meteohub,2013-04-05 22:52:00,
2013-04-05 17:57:00,70.9,49.1,30.07,South,170,0.0,6.0,46,0.00,,,0.01,meteohub,2013-04-05 22:57:00,
2013-04-05 18:07:00,70.5,49.3,30.07,SSE,154,2.0,4.0,47,0.00,,,0.01,meteohub,2013-04-05 23:07:00,
2013-04-05 18:12:00,70.5,48.7,30.07,SSE,151,2.0,5.0,46,0.00,,,0.01,meteohub,2013-04-05 23:12:00,
2013-04-05 18:17:00,70.5,48.2,30.07,ESE,104,1.0,6.0,45,0.00,,,0.01,meteohub,2013-04-05 23:17:00,
2013-04-05 18:22:00,70.3,48.6,30.06,SE,133,5.0,6.0,46,0.00,,,0.01,meteohub,2013-04-05 23:22:00,
2013-04-05 18:27:00,70.2,48.4,30.06,ESE,106,1.0,6.0,46,0.00,,,0.01,meteohub,2013-04-05 23:27:00,
2013-04-05 18:37:00,69.4,47.8,30.06,South,173,1.0,7.0,46,0.00,,,0.01,meteohub,2013-04-05 23:37:00,
2013-04-05 18:42:00,69.3,46.9,30.06,ESE,121,1.0,7.0,45,0.00,,,0.01,meteohub,2013-04-05 23:42:00,
2013-04-05 18:47:00,69.1,46.8,30.06,ESE,113,2.0,7.0,45,0.00,,,0.01,meteohub,2013-04-05 23:47:00,
2013-04-05 18:52:00,68.7,46.6,30.05,SE,128,0.0,5.0,45,0.00,,,0.01,meteohub,2013-04-05 23:52:00,
2013-04-05 18:57:00,68.4,46.2,30.06,SE,134,2.0,3.0,45,0.00,,,0.01,meteohub,2013-04-05 23:57:00,
2013-04-05 19:02:00,68.0,46.4,30.06,SSE,156,1.0,5.0,46,0.00,,,0.01,meteohub,2013-04-06 00:02:00,
2013-04-05 19:07:00,67.6,46.0,30.06,SE,134,0.0,5.0,46,0.00,,,0.00,meteohub,2013-04-06 00:07:00,
2013-04-05 19:17:00,66.9,48.7,30.06,SE,134,0.0,4.0,52,0.00,,,0.00,meteohub,2013-04-06 00:17:00,
2013-04-05 19:22:00,66.7,50.0,30.07,SE,134,0.0,4.0,55,0.00,,,0.00,meteohub,2013-04-06 00:22:00,
2013-04-05 19:32:00,65.8,50.2,30.06,SE,134,0.0,1.0,57,0.00,,,0.00,meteohub,2013-04-06 00:32:00,
2013-04-05 19:42:00,64.9,49.3,30.06,SE,134,0.0,1.0,57,0.00,,,0.00,meteohub,2013-04-06 00:42:00,
2013-04-05 19:47:00,64.4,48.9,30.07,SE,134,0.0,1.0,57,0.00,,,0.00,meteohub,2013-04-06 00:47:00,
2013-04-05 19:52:00,63.9,50.2,30.06,SE,134,0.0,1.0,61,0.00,,,0.00,meteohub,2013-04-06 00:52:00,
2013-04-05 19:57:00,63.3,48.7,30.06,SE,134,0.0,1.0,59,0.00,,,0.00,meteohub,2013-04-06 00:57:00,
2013-04-05 20:07:00,62.4,49.6,30.06,SE,134,0.0,0.0,63,0.00,,,0.00,meteohub,2013-04-06 01:07:00,
2013-04-05 20:12:00,62.1,49.3,30.06,SE,134,0.0,0.0,63,0.00,,,0.00,meteohub,2013-04-06 01:12:00,
2013-04-05 20:22:00,61.2,49.3,30.06,SE,134,0.0,0.0,65,0.00,,,0.00,meteohub,2013-04-06 01:22:00,
2013-04-05 20:28:00,61.0,49.5,30.06,SE,134,0.0,0.0,66,0.00,,,0.00,meteohub,2013-04-06 01:28:00,
2013-04-05 20:37:00,60.1,49.1,30.06,SE,134,0.0,1.0,67,0.00,,,0.00,meteohub,2013-04-06 01:37:00,
2013-04-05 20:47:00,59.4,48.7,30.07,SE,134,0.0,1.0,68,0.00,,,0.00,meteohub,2013-04-06 01:47:00,
2013-04-05 20:52:00,59.2,49.1,30.07,WSW,257,0.0,1.0,69,0.00,,,0.00,meteohub,2013-04-06 01:52:00,
2013-04-05 20:57:00,58.8,48.7,30.07,WSW,257,0.0,3.0,69,0.00,,,0.00,meteohub,2013-04-06 01:57:00,
2013-04-05 21:02:00,58.5,48.7,30.07,WSW,257,0.0,3.0,70,0.00,,,0.00,meteohub,2013-04-06 02:02:00,
2013-04-05 21:07:00,58.3,48.9,30.07,WSW,257,0.0,2.0,71,0.00,,,0.00,meteohub,2013-04-06 02:07:00,
2013-04-05 21:12:00,57.9,49.3,30.07,WSW,257,0.0,1.0,73,0.00,,,0.00,meteohub,2013-04-06 02:12:00,
2013-04-05 21:17:00,57.7,49.1,30.07,WSW,257,0.0,1.0,73,0.00,,,0.00,meteohub,2013-04-06 02:17:00,
2013-04-05 21:22:00,57.6,48.9,30.07,WSW,257,0.0,1.0,73,0.00,,,0.00,meteohub,2013-04-06 02:22:00,
2013-04-05 21:27:00,57.4,48.7,30.07,WSW,257,0.0,1.0,73,0.00,,,0.00,meteohub,2013-04-06 02:27:00,
2013-04-05 21:32:00,57.0,48.7,30.07,WSW,257,0.0,1.0,74,0.00,,,0.00,meteohub,2013-04-06 02:32:00,
2013-04-05 21:37:00,56.8,48.9,30.07,WSW,257,0.0,1.0,75,0.00,,,0.00,meteohub,2013-04-06 02:37:00,
2013-04-05 21:42:00,56.7,48.7,30.07,WSW,257,1.0,1.0,75,0.00,,,0.00,meteohub,2013-04-06 02:42:00,
2013-04-05 21:47:00,56.7,48.7,30.07,WSW,257,0.0,1.0,75,0.00,,,0.00,meteohub,2013-04-06 02:47:00,
2013-04-05 21:57:00,55.9,48.6,30.07,WSW,257,1.0,1.0,76,0.00,,,0.00,meteohub,2013-04-06 02:57:00,
2013-04-05 22:02:00,55.8,48.7,30.07,WSW,257,1.0,1.0,77,0.00,,,0.00,meteohub,2013-04-06 03:02:00,
2013-04-05 22:12:00,55.0,48.6,30.07,WSW,257,0.0,1.0,79,0.00,,,0.00,meteohub,2013-04-06 03:12:00,
2013-04-05 22:17:00,54.9,48.6,30.07,WSW,257,0.0,1.0,79,0.00,,,0.00,meteohub,2013-04-06 03:17:00,
2013-04-05 22:27:00,54.3,48.2,30.07,WSW,257,0.0,1.0,80,0.00,,,0.00,meteohub,2013-04-06 03:27:00,
2013-04-05 22:37:00,54.0,48.6,30.07,WSW,257,0.0,1.0,82,0.00,,,0.00,meteohub,2013-04-06 03:37:00,
2013-04-05 22:42:00,54.0,48.6,30.07,WSW,257,0.0,1.0,82,0.00,,,0.00,meteohub,2013-04-06 03:42:00,
2013-04-05 22:47:00,54.0,48.9,30.07,SE,145,0.0,1.0,83,0.00,,,0.00,meteohub,2013-04-06 03:47:00,
2013-04-05 22:57:00,54.0,49.3,30.07,South,185,0.0,2.0,84,0.00,,,0.00,meteohub,2013-04-06 03:57:00,
2013-04-05 23:02:00,54.0,48.9,30.07,South,185,0.0,2.0,83,0.00,,,0.00,meteohub,2013-04-06 04:02:00,
2013-04-05 23:07:00,54.0,48.9,30.06,South,185,0.0,2.0,83,0.00,,,0.00,meteohub,2013-04-06 04:07:00,
2013-04-05 23:12:00,54.0,48.9,30.06,South,185,0.0,2.0,83,0.00,,,0.00,meteohub,2013-04-06 04:12:00,
2013-04-05 23:17:00,54.0,48.9,30.07,South,185,0.0,2.0,83,0.00,,,0.00,meteohub,2013-04-06 04:17:00,
2013-04-05 23:22:00,54.0,48.9,30.06,SSE,156,1.0,1.0,83,0.00,,,0.00,meteohub,2013-04-06 04:22:00,
2013-04-05 23:27:00,54.0,48.6,30.06,SSE,158,1.0,2.0,82,0.00,,,0.00,meteohub,2013-04-06 04:27:00,
2013-04-05 23:32:00,54.0,48.9,30.06,South,170,0.0,2.0,83,0.00,,,0.00,meteohub,2013-04-06 04:32:00,
2013-04-05 23:37:00,53.8,48.7,30.06,SSE,161,2.0,2.0,83,0.00,,,0.00,meteohub,2013-04-06 04:37:00,
2013-04-05 23:47:00,53.8,48.7,30.06,SSE,167,0.0,3.0,83,0.00,,,0.00,meteohub,2013-04-06 04:47:00,
2013-04-05 23:52:00,53.8,48.4,30.05,SSE,167,0.0,3.0,82,0.00,,,0.00,meteohub,2013-04-06 04:52:00,
2013-04-05 23:57:00,53.8,48.4,30.05,SSE,167,0.0,2.0,82,0.00,,,0.00,meteohub,2013-04-06 04:57:00,